Location: Ammerl�gen
(47.2167°N, 9.6000°E)
Time: 12:07:57
(UTC+00:00)

Cosmos 676 Rocket - Pass Details

Date: 01 August 2021
Orbit: 755 x 783 km, 74.0° (Epoch: 26 September)

Event Time Altitude Azimuth Distance (km) Brightness Sun altitude
Exits shadow 23:45:13 10° 105° (ESE) 2,313 6.4 -24.9°
Maximum altitude 23:46:27 11° 91° (E) 2,259 6.5 -24.9°
Drops below altitude 10° 23:47:58 10° 75° (ENE) 2,344 6.7 -24.9°
Sets 23:52:15 0° 42° (NE) 3,279 8.1 -24.8°
